Mammoth, USA 16 day weather forecast

Slopes altitude range 2290 m - 3075m

Number of lifts: 28 Pistes: -1km

In some cases the lift and piste totals shown are for the ski domain (e.g. Three Valleys) rather than individual resort (e.g. Courchevel)

Overview

The 16 day weather forecast is fully updated 4 times every day.

    • Thu 21 JUN 2018
    • Thu 21
    • 12C 24C
    • Fri 22 JUN 2018
    • Fri 22
    • 11C 13C
    • Sat 23 JUN 2018
    • Sat 23
    • 12C 14C
    • Sun 24 JUN 2018
    • Sun 24
    • 13C 15C
    • Mon 25 JUN 2018
    • Mon 25
    • 13C 15C
    • Tue 26 JUN 2018
    • Tue 26
    • 12C 14C
    • Wed 27 JUN 2018
    • Wed 27
    • 12C 13C
    • Thu 28 JUN 2018
    • Thu 28
    • 12C 13C
    • Fri 29 JUN 2018
    • Fri 29
    • 14C 19C
    • Sat 30 JUN 2018
    • Sat 30
    • 15C 20C
    • Sun 01 JUL 2018
    • Sun 01
    • 16C 20C
    • Mon 02 JUL 2018
    • Mon 02
    • 12C 24C
    • Tue 03 JUL 2018
    • Tue 03
    • 15C 23C
    • Wed 04 JUL 2018
    • Wed 04
    • 13C 22C
    • Thu 05 JUL 2018
    • Thu 05
    • 15C 23C
    • Fri 06 JUL 2018
    • Fri 06
    • 11C 20C

Date:

Time Type 0°C level Temp Chill Snow Cloud Speed Gust Dir Press
18:00 4845m 24°C 24_6 0cm 0% 6mph 7mph 1015mB
21:00 4875m 24°C 24_8 0cm 0% 8mph 9mph 1013mB
0:00 4880m 23°C 23_7 0cm 0% 7mph 7mph 1012mB
3:00 4976m 15°C 15_1 0cm 0% 1mph 1mph 1014mB
6:00 5032m 12°C 12_7 0cm 0% 7mph 8mph 1016mB
9:00 5168m 12°C 12_7 0cm 0% 7mph 8mph 1016mB
12:00 5254m 13°C 13_7 0cm 0% 7mph 8mph 1016mB
15:00 5192m 19°C 19_4 0cm 0% 4mph 5mph 1016mB
18:00 5156m 26°C 26_6 0cm 0% 6mph 4mph 1014mB
21:00 5171m 26°C 26_8 0cm 0% 8mph 7mph 1012mB
0:00 5164m 25°C 25_7 0cm 0% 7mph 7mph 1010mB
3:00 5170m 16°C 16_2 0cm 0% 2mph 2mph 1010mB
6:00 5182m 14°C 14_7 0cm 0% 7mph 8mph 1011mB
9:00 5227m 13°C 13_7 0cm 0% 7mph 7mph 1010mB
12:00 5256m 14°C 14_7 0cm 0% 7mph 8mph 1010mB
15:00 5196m 20°C 20_2 0cm 0% 2mph 3mph 1010mB
18:00 5232m 25°C 25_6 0cm 0% 6mph 5mph 1008mB
21:00 5224m 25°C 25_8 0cm 0% 8mph 6mph 1007mB
0:00 5219m 25°C 25_7 0cm 0% 7mph 7mph 1005mB
3:00 5138m 17°C 17_2 0cm 0% 2mph 3mph 1007mB
6:00 5412m 15°C 15_7 0cm 0% 7mph 8mph 1009mB
9:00 5309m 14°C 14_8 0cm 0% 8mph 8mph 1010mB
12:00 5228m 15°C 15_8 0cm 0% 8mph 8mph 1010mB
15:00 5215m 20°C 20_4 0cm 0% 4mph 6mph 1011mB
18:00 5204m 26°C 26_7 0cm 0% 7mph 6mph 1011mB
21:00 5184m 25°C 25_10 0cm 0% 10mph 8mph 1010mB
0:00 5144m 25°C 25_8 0cm 0% 8mph 7mph 1009mB
3:00 5088m 17°C 17_2 0cm 0% 2mph 2mph 1010mB
6:00 5104m 15°C 15_6 0cm 0% 6mph 7mph 1013mB
9:00 5215m 14°C 14_5 0cm 0% 5mph 6mph 1013mB
12:00 5208m 15°C 15_5 0cm 0% 5mph 6mph 1013mB
15:00 5114m 21°C 21_1 0cm 0% 1mph 1mph 1014mB
18:00 5098m 24°C 24_7 0cm 0% 7mph 5mph 1013mB
21:00 5114m 24°C 24_8 0cm 0% 8mph 7mph 1012mB
0:00 5143m 24°C 24_7 0cm 0% 7mph 7mph 1011mB
3:00 5200m 16°C 16_2 0cm 0% 2mph 3mph 1012mB
6:00 5173m 13°C 13_6 0cm 0% 6mph 7mph 1015mB
9:00 5134m 13°C 13_6 0cm 0% 6mph 7mph 1014mB
12:00 5148m 14°C 14_6 0cm 0% 6mph 7mph 1015mB
15:00 5170m 20°C 20_1 0cm 0% 1mph 1mph 1015mB
18:00 5149m 24°C 24_6 0cm 0% 6mph 4mph 1014mB
21:00 5126m 24°C 24_8 0cm 0% 8mph 7mph 1012mB
0:00 5159m 24°C 24_7 0cm 0% 7mph 7mph 1011mB
3:00 5218m 16°C 16_2 0cm 0% 2mph 2mph 1012mB
6:00 5204m 13°C 13_7 0cm 0% 7mph 7mph 1014mB
9:00 5157m 13°C 13_7 0cm 0% 7mph 7mph 1014mB
12:00 5168m 13°C 13_7 0cm 0% 7mph 7mph 1014mB
15:00 5165m 20°C 20_1 0cm 0% 1mph 1mph 1014mB
18:00 5169m 24°C 24_6 0cm 0% 6mph 5mph 1012mB
21:00 5166m 24°C 24_8 0cm 0% 8mph 7mph 1011mB
0:00 5199m 24°C 24_7 0cm 0% 7mph 6mph 1009mB
3:00 5245m 16°C 16_2 0cm 0% 2mph 2mph 1010mB
6:00 5233m 13°C 13_7 0cm 0% 7mph 7mph 1013mB
9:00 5206m 12°C 12_6 0cm 13% 6mph 7mph 1012mB
12:00 5151m 13°C 13_6 0cm 56% 6mph 7mph 1012mB
15:00 5128m 19°C 19_1 0cm 92% 1mph 1mph 1012mB
18:00 5099m 24°C 24_6 0cm 82% 6mph 4mph 1011mB
21:00 5140m 24°C 24_8 0cm 0% 8mph 6mph 1009mB
0:00 5153m 24°C 24_7 0cm 0% 7mph 6mph 1007mB
3:00 4990m 23°C 23_8 0cm 0% 8mph 9mph 1009mB
6:00 5045m 19°C 19_4 0cm 0% 4mph 4mph 1011mB
9:00 5181m 16°C 16_1 0cm 0% 1mph 1mph 1012mB
12:00 5221m 19°C 19_2 0cm 0% 2mph 3mph 1012mB
15:00 5148m 18°C 18_1 0cm 0% 1mph 2mph 1012mB
18:00 5164m 23°C 23_3 0cm 0% 3mph 6mph 1011mB
21:00 4861m 24°C 24_3 0cm 0% 3mph 6mph 1009mB
0:00 4954m 24°C 24_7 0cm 0% 7mph 5mph 1007mB
3:00 4882m 25°C 25_7 0cm 0% 7mph 8mph 1008mB
6:00 5289m 20°C 20_5 0cm 0% 5mph 6mph 1010mB
9:00 5269m 18°C 18_3 0cm 0% 3mph 4mph 1010mB
12:00 5235m 20°C 20_1 0cm 0% 1mph 2mph 1010mB
15:00 5144m 20°C 20_3 0cm 0% 3mph 3mph 1010mB
18:00 5092m 25°C 25_5 0cm 0% 5mph 7mph 1009mB
21:00 4880m 25°C 25_6 0cm 0% 6mph 6mph 1008mB
0:00 4943m 25°C 25_10 0cm 1% 10mph 8mph 1006mB
3:00 4912m 24°C 24_9 0cm 5% 9mph 9mph 1007mB
6:00 4997m 20°C 20_7 0cm 3% 7mph 8mph 1010mB
9:00 5069m 18°C 18_4 0cm 0% 4mph 6mph 1010mB
12:00 5095m 20°C 20_4 0cm 0% 4mph 6mph 1011mB
Morning 0.00520833mm 0.0625 4819m 13°C 13_7 0cm 18% 7mph 7mph 1008mB
Afternoon 0.0104167mm 0.125 4806m 24°C 24_4 0cm 27% 4mph 6mph 1013mB
Morning 0.0364583mm 0.375 4748m 12°C 12_2 0cm 26% 2mph 2mph 1008mB
Afternoon 0.0520833mm 0.125 4777m 23°C 23_2 0cm 92% 2mph 4mph 1012mB
Morning 0.0520833mm 0 4792m 14°C 14_11 0cm 48% 11mph 10mph 1009mB
Afternoon 0.0364583mm 0 4807m 22°C 22_4 0cm 32% 4mph 5mph 1015mB
Morning 0.0260417mm 0.25 4758m 13°C 13_7 0cm 40% 7mph 8mph 1011mB
Afternoon 0.0989583mm 0.5625 4714m 23°C 23_1 0cm 97% 1mph 2mph 1013mB
Morning 0.140625mm 0 4617m 14°C 14_10 0cm 100% 10mph 10mph 1008mB
Afternoon 0.0729167mm 0.875 4363m 20°C 20_5 0cm 34% 5mph 7mph 1011mB
Morning 0mm 0 4729m 11°C 11_12 0cm 15% 12mph 11mph 1007mB
Afternoon 0mm 0 4663m 23°C 23_6 0cm 1% 6mph 8mph 1014mB

16 day outlook at a glance

Forecast issued: 21/06/2018 22:59:31

Chat

Your comments and questions. In a resort? Let us know what it's like!


Characters left 250

For terms and conditions see Readers Comments on the Cookie and privacy policy page.